Location: St. Louis
(38.6270°N, 90.1994°W)
Time: 09:15:33
(UTC-06:00)

SR - Pass Details

Date: 01 December 2021
Orbit: 582 x 872 km, 66.7° (Epoch: 21 January)

Event Time Altitude Azimuth Distance (km) Brightness Sun altitude
Rises 01:00:22 0° 243° (WSW) 2,998 - -67.4°
Reaches altitude 10° 01:03:16 10° 260° (W) 2,037 - -67.0°
Maximum altitude 01:06:39 20° 309° (NW) 1,437 - -66.5°
Drops below altitude 10° 01:09:55 10° 357° (N) 1,952 - -66.0°
Sets 01:12:38 0° 15° (NNE) 2,832 - -65.6°
